Location: Kumla
(59.1265°N, 15.1401°E)
Time: 13:26:57
(UTC+01:00)

Vanguard 3 - Pass Details

Date: 07 December 2023
Orbit: 508 x 3239 km, 33.4° (Epoch: 03 March)

Event Time Altitude Azimuth Distance (km) Brightness Sun altitude
Rises 21:54:39 0° 223° (SW) 6,033 11.6 -48.1°
Enters shadow 21:57:27 - 217° (SW) 5,365 11.2 -48.3°
Reaches altitude 10° 22:02:40 10° 198° (SSW) 4,250 - -48.8°
Maximum altitude 22:05:52 12° 181° (S) 3,769 - -49.0°
Drops below altitude 10° 22:08:41 10° 163° (SSE) 3,581 - -49.3°
Sets 22:13:44 0° 133° (SE) 3,952 - -49.7°
